TimeEST,TemperatureF,Dew PointF,Humidity,Sea Level PressureIn,VisibilityMPH,Wind Direction,Wind SpeedMPH,Gust SpeedMPH,PrecipitationIn,Events,Conditions,WindDirDegrees,DateUTC
12:15 AM,32.0,30.2,93,30.39,7.0,Calm,Calm,-,N/A,,Clear,0,2012-11-18 05:15:00
12:35 AM,32.0,32.0,100,30.39,10.0,Calm,Calm,-,N/A,,Clear,0,2012-11-18 05:35:00
12:55 AM,32.0,32.0,100,30.39,10.0,Calm,Calm,-,N/A,,Clear,0,2012-11-18 05:55:00
1:15 AM,32.0,32.0,100,30.39,10.0,Calm,Calm,-,N/A,,Clear,0,2012-11-18 06:15:00
1:35 AM,32.0,30.2,93,30.39,10.0,Calm,Calm,-,N/A,,Clear,0,2012-11-18 06:35:00
1:55 AM,32.0,30.2,93,30.39,10.0,Calm,Calm,-,N/A,,Clear,0,2012-11-18 06:55:00
2:15 AM,32.0,32.0,100,30.39,10.0,Calm,Calm,-,N/A,,Clear,0,2012-11-18 07:15:00
2:35 AM,28.4,28.4,100,30.39,7.0,Calm,Calm,-,N/A,,Clear,0,2012-11-18 07:35:00
2:55 AM,28.4,28.4,100,30.40,7.0,Calm,Calm,-,N/A,,Clear,0,2012-11-18 07:55:00
3:15 AM,28.4,26.6,93,30.39,7.0,Calm,Calm,-,N/A,,Clear,0,2012-11-18 08:15:00
3:35 AM,30.2,28.4,93,30.40,10.0,Calm,Calm,-,N/A,,Clear,0,2012-11-18 08:35:00
3:55 AM,30.2,28.4,93,30.40,10.0,Calm,Calm,-,N/A,,Clear,0,2012-11-18 08:55:00
4:15 AM,28.4,28.4,100,30.39,10.0,Calm,Calm,-,N/A,,Clear,0,2012-11-18 09:15:00
4:35 AM,28.4,28.4,100,30.39,10.0,Calm,Calm,-,N/A,,Clear,0,2012-11-18 09:35:00
4:55 AM,28.4,28.4,100,30.39,10.0,Calm,Calm,-,N/A,,Clear,0,2012-11-18 09:55:00
5:15 AM,28.4,28.4,100,30.39,10.0,Calm,Calm,-,N/A,,Clear,0,2012-11-18 10:15:00
5:35 AM,28.4,28.4,100,30.39,10.0,Calm,Calm,-,N/A,,Clear,0,2012-11-18 10:35:00
5:55 AM,28.4,28.4,100,30.39,10.0,Calm,Calm,-,N/A,,Clear,0,2012-11-18 10:55:00
6:15 AM,28.4,28.4,100,30.40,10.0,Calm,Calm,-,N/A,,Clear,0,2012-11-18 11:15:00
6:35 AM,26.6,26.6,100,30.40,10.0,Calm,Calm,-,N/A,,Clear,0,2012-11-18 11:35:00
6:55 AM,26.6,24.8,93,30.41,10.0,Calm,Calm,-,N/A,,Clear,0,2012-11-18 11:55:00
7:15 AM,26.6,26.6,100,30.41,10.0,Calm,Calm,-,N/A,,Clear,0,2012-11-18 12:15:00
7:35 AM,28.4,28.4,100,30.42,10.0,Calm,Calm,-,N/A,,Clear,0,2012-11-18 12:35:00
7:55 AM,28.4,28.4,100,30.42,10.0,Calm,Calm,-,N/A,,Clear,0,2012-11-18 12:55:00
8:15 AM,30.2,30.2,100,30.42,10.0,Calm,Calm,-,N/A,,Clear,0,2012-11-18 13:15:00
8:35 AM,32.0,30.2,93,30.42,10.0,Calm,Calm,-,N/A,,Clear,0,2012-11-18 13:35:00
8:55 AM,32.0,30.2,93,30.42,10.0,Calm,Calm,-,N/A,,Clear,0,2012-11-18 13:55:00
9:15 AM,33.8,32.0,93,30.41,10.0,Calm,Calm,-,N/A,,Clear,0,2012-11-18 14:15:00
9:35 AM,37.4,32.0,81,30.41,10.0,SW,3.5,-,N/A,,Clear,230,2012-11-18 14:35:00
9:55 AM,41.0,33.8,76,30.40,10.0,Calm,Calm,-,N/A,,Clear,0,2012-11-18 14:55:00
10:15 AM,44.6,32.0,61,30.40,10.0,Calm,Calm,-,N/A,,Clear,0,2012-11-18 15:15:00
10:35 AM,48.2,32.0,54,30.39,10.0,Calm,Calm,-,N/A,,Clear,0,2012-11-18 15:35:00
10:55 AM,51.8,32.0,47,30.39,10.0,Calm,Calm,-,N/A,,Clear,0,2012-11-18 15:55:00
11:15 AM,53.6,30.2,41,30.38,10.0,Calm,Calm,-,N/A,,Clear,0,2012-11-18 16:15:00
11:35 AM,57.2,32.0,38,30.37,10.0,WSW,5.8,-,N/A,,Clear,250,2012-11-18 16:35:00
11:55 AM,59.0,32.0,36,30.36,10.0,West,9.2,-,N/A,,Clear,260,2012-11-18 16:55:00
12:15 PM,60.8,32.0,34,30.35,10.0,West,10.4,-,N/A,,Clear,270,2012-11-18 17:15:00
12:35 PM,60.8,30.2,31,30.34,10.0,WSW,8.1,-,N/A,,Clear,240,2012-11-18 17:35:00
12:55 PM,62.6,32.0,32,30.33,10.0,WSW,8.1,-,N/A,,Clear,240,2012-11-18 17:55:00
1:15 PM,62.6,30.2,30,30.32,10.0,West,5.8,-,N/A,,Clear,270,2012-11-18 18:15:00
1:35 PM,64.4,30.2,28,30.32,10.0,WSW,5.8,-,N/A,,Clear,250,2012-11-18 18:35:00
1:55 PM,64.4,32.0,30,30.31,10.0,SW,5.8,-,N/A,,Clear,220,2012-11-18 18:55:00
2:15 PM,66.2,32.0,28,30.31,10.0,WNW,4.6,-,N/A,,Clear,300,2012-11-18 19:15:00
2:35 PM,66.2,32.0,28,30.30,10.0,West,6.9,-,N/A,,Clear,280,2012-11-18 19:35:00
2:55 PM,66.2,35.6,32,30.30,10.0,West,4.6,-,N/A,,Clear,280,2012-11-18 19:55:00
3:15 PM,66.2,37.4,35,30.30,10.0,West,3.5,-,N/A,,Clear,270,2012-11-18 20:15:00
3:35 PM,66.2,39.2,37,30.30,10.0,Calm,Calm,-,N/A,,Clear,0,2012-11-18 20:35:00
3:55 PM,66.2,41.0,40,30.30,10.0,Calm,Calm,-,N/A,,Clear,0,2012-11-18 20:55:00
4:15 PM,68.0,44.6,43,30.30,10.0,SSW,3.5,-,N/A,,Clear,200,2012-11-18 21:15:00
4:35 PM,66.2,46.4,49,30.30,10.0,SSW,5.8,-,N/A,,Clear,210,2012-11-18 21:35:00
4:55 PM,64.4,46.4,52,30.31,10.0,SSW,4.6,-,N/A,,Clear,200,2012-11-18 21:55:00
5:15 PM,62.6,46.4,55,30.31,10.0,SSW,4.6,-,N/A,,Clear,210,2012-11-18 22:15:00
5:35 PM,60.8,46.4,59,30.32,10.0,Calm,Calm,-,N/A,,Clear,0,2012-11-18 22:35:00
5:55 PM,53.6,44.6,72,30.32,10.0,North,4.6,-,N/A,,Clear,350,2012-11-18 22:55:00
6:15 PM,50.0,42.8,76,30.33,10.0,Calm,Calm,-,N/A,,Clear,0,2012-11-18 23:15:00
6:35 PM,50.0,42.8,76,30.34,10.0,Calm,Calm,-,N/A,,Clear,0,2012-11-18 23:35:00
6:55 PM,48.2,41.0,76,30.34,10.0,Calm,Calm,-,N/A,,Clear,0,2012-11-18 23:55:00
7:15 PM,44.6,41.0,87,30.35,10.0,Calm,Calm,-,N/A,,Clear,0,2012-11-19 00:15:00
7:35 PM,44.6,41.0,87,30.35,10.0,Calm,Calm,-,N/A,,Clear,0,2012-11-19 00:35:00
7:55 PM,42.8,39.2,87,30.36,10.0,Calm,Calm,-,N/A,,Clear,0,2012-11-19 00:55:00
8:15 PM,42.8,39.2,87,30.36,10.0,Calm,Calm,-,N/A,,Clear,0,2012-11-19 01:15:00
8:35 PM,41.0,39.2,93,30.36,10.0,Calm,Calm,-,N/A,,Clear,0,2012-11-19 01:35:00
8:55 PM,41.0,37.4,87,30.36,10.0,Calm,Calm,-,N/A,,Clear,0,2012-11-19 01:55:00
9:15 PM,39.2,37.4,93,30.36,10.0,Calm,Calm,-,N/A,,Clear,0,2012-11-19 02:15:00
9:35 PM,39.2,37.4,93,30.36,10.0,Calm,Calm,-,N/A,,Clear,0,2012-11-19 02:35:00
9:55 PM,39.2,37.4,93,30.37,10.0,Calm,Calm,-,N/A,,Clear,0,2012-11-19 02:55:00
10:15 PM,35.6,35.6,100,30.37,7.0,Calm,Calm,-,N/A,,Clear,0,2012-11-19 03:15:00
10:35 PM,37.4,35.6,93,30.37,10.0,Calm,Calm,-,N/A,,Clear,0,2012-11-19 03:35:00
10:55 PM,35.6,35.6,100,30.36,7.0,Calm,Calm,-,N/A,,Clear,0,2012-11-19 03:55:00
11:15 PM,35.6,35.6,100,30.36,5.0,Calm,Calm,-,N/A,,Clear,0,2012-11-19 04:15:00
11:35 PM,35.6,35.6,100,30.35,5.0,Calm,Calm,-,N/A,,Clear,0,2012-11-19 04:35:00